| time (UTC) | temp C | wind direction | speed KPH | gust KPH | rain 1hr cm | rain 24hr cm | rain mn cm | humidity % | barometer mb |
| 20260903174537 | 17 | 259 | 11.3 | 20.9 | 0.00 | 1.04 | 0.20 | 88 | 1009.7 |
| 20260903173035 | 17 | 274 | 12.9 | 27.4 | 0.00 | 1.04 | 0.20 | 88 | 1009.7 |
| 20260903171540 | 17 | 297 | 9.7 | 27.4 | 0.00 | 1.04 | 0.20 | 88 | 1009.5 |
| 20260903170051 | 17 | 235 | 9.7 | 20.9 | 0.00 | 1.04 | 0.20 | 88 | 1009.6 |
| 20260903164538 | 17 | 307 | 9.7 | 25.7 | 0.00 | 1.04 | 0.20 | 87 | 1009.4 |
| 20260903163038 | 17 | 258 | 8.0 | 20.9 | 0.00 | 1.04 | 0.20 | 87 | 1009.1 |
| 20260903161534 | 17 | 268 | 12.9 | 27.4 | 0.00 | 1.04 | 0.20 | 86 | 1009.3 |
| 20260903160035 | 18 | 266 | 12.9 | 35.4 | 0.00 | 1.04 | 0.20 | 86 | 1009.4 |
| 20260903154536 | 18 | 163 | 9.7 | 33.8 | 0.00 | 1.04 | 0.20 | 86 | 1009.1 |
| 20260903153035 | 18 | 278 | 12.9 | 33.8 | 0.00 | 1.04 | 0.20 | 86 | 1008.9 |
| 20260903151536 | 18 | 264 | 14.5 | 27.4 | 0.00 | 1.04 | 0.20 | 86 | 1009.1 |
| 20260903150047 | 18 | 262 | 16.1 | 30.6 | 0.00 | 1.04 | 0.20 | 85 | 1009.0 |
| 20260903144537 | 18 | 322 | 16.1 | 29.0 | 0.00 | 1.04 | 0.20 | 88 | 1008.9 |
| 20260903143041 | 18 | 290 | 14.5 | 27.4 | 0.00 | 1.04 | 0.20 | 90 | 1008.8 |
| 20260903141536 | 18 | 272 | 9.7 | 25.7 | 0.00 | 1.02 | 0.18 | 89 | 1008.6 |
| 20260903140043 | 18 | 283 | 14.5 | 29.0 | 0.00 | 1.02 | 0.18 | 88 | 1008.6 |
| 20260903134533 | 18 | 261 | 9.7 | 19.3 | 0.00 | 1.07 | 0.18 | 90 | 1008.4 |
| 20260903133033 | 18 | 255 | 14.5 | 29.0 | 0.00 | 1.07 | 0.18 | 91 | 1008.5 |
| 20260903131535 | 18 | 254 | 12.9 | 24.1 | 0.00 | 1.07 | 0.18 | 93 | 1008.5 |
| 20260903130035 | 18 | 283 | 9.7 | 25.7 | 0.00 | 1.07 | 0.18 | 92 | 1008.6 |
| 20260903124535 | 18 | 257 | 9.7 | 27.4 | 0.00 | 1.07 | 0.18 | 92 | 1008.4 |
| 20260903123037 | 18 | 279 | 11.3 | 25.7 | 0.00 | 1.07 | 0.18 | 93 | 1008.1 |
| 20260903121538 | 18 | 297 | 12.9 | 24.1 | 0.00 | 1.07 | 0.18 | 94 | 1008.0 |
| 20260903120041 | 18 | 207 | 9.7 | 20.9 | 0.00 | 1.07 | 0.18 | 93 | 1008.0 |
| 20260903114542 | 18 | 294 | 11.3 | 24.1 | 0.00 | 1.07 | 0.18 | 93 | 1008.1 |
| 20260903113036 | 18 | 266 | 12.9 | 29.0 | 0.00 | 1.07 | 0.18 | 94 | 1008.2 |
| 20260903111535 | 18 | 274 | 12.9 | 32.2 | 0.00 | 1.07 | 0.18 | 95 | 1008.0 |
| 20260903110036 | 18 | 244 | 12.9 | 27.4 | 0.00 | 1.07 | 0.18 | 95 | 1008.0 |
| 20260903104536 | 18 | 238 | 12.9 | 24.1 | 0.00 | 1.09 | 0.18 | 96 | 1007.8 |
| 20260903103040 | 18 | 283 | 11.3 | 27.4 | 0.03 | 1.09 | 0.18 | 96 | 1007.8 |
| 20260903101543 | 18 | 236 | 6.4 | 20.9 | 0.03 | 1.09 | 0.18 | 96 | 1008.1 |
| 20260903100042 | 17 | 212 | 9.7 | 22.5 | 0.00 | 1.07 | 0.18 | 96 | 1008.2 |
| 20260903094536 | 17 | 236 | 6.4 | 14.5 | 0.00 | 1.17 | 0.18 | 96 | 1008.1 |
| 20260903093100 | 17 | 229 | 4.8 | 16.1 | 0.00 | 1.14 | 0.15 | 96 | 1008.3 |
| 20260903091540 | 17 | 200 | 3.2 | 12.9 | 0.00 | 1.14 | 0.15 | 96 | 1008.3 |
| 20260903090041 | 17 | 229 | 4.8 | 12.9 | 0.00 | 1.14 | 0.15 | 96 | 1008.3 |
| 20260903084534 | 17 | 229 | 6.4 | 11.3 | 0.00 | 1.14 | 0.15 | 96 | 1008.6 |
| 20260903083036 | 17 | 244 | 4.8 | 12.9 | 0.00 | 1.14 | 0.15 | 97 | 1008.4 |
| 20260903081538 | 17 | 206 | 6.4 | 14.5 | 0.00 | 1.14 | 0.15 | 97 | 1008.6 |
| 20260903080036 | 16 | 159 | 1.6 | 6.4 | 0.00 | 1.14 | 0.15 | 97 | 1008.7 |
| 20260903074540 | 16 | 0 | 0.0 | 3.2 | 0.00 | 1.14 | 0.15 | 97 | 1009.1 |
| 20260903073036 | 16 | 0 | 0.0 | 1.6 | 0.00 | 1.14 | 0.15 | 96 | 1009.3 |
| 20260903071541 | 16 | 0 | 0.0 | 0.0 | 0.00 | 1.14 | 0.15 | 97 | 1009.3 |
| 20260903070054 | 15 | 0 | 0.0 | 4.8 | 0.00 | 1.14 | 0.15 | 96 | 1009.3 |
| 20260903064533 | 15 | 0 | 0.0 | 3.2 | 0.00 | 1.14 | 0.15 | 96 | 1009.4 |
| 20260903063034 | 15 | 166 | 0.0 | 3.2 | 0.00 | 1.14 | 0.15 | 96 | 1009.6 |
| 20260903061534 | 15 | 0 | 0.0 | 0.0 | 0.00 | 1.14 | 0.15 | 96 | 1009.7 |
| 20260903060034 | 15 | 0 | 0.0 | 0.0 | 0.00 | 1.12 | 0.13 | 96 | 1009.9 |
| 20260903054543 | 14 | 0 | 0.0 | 0.0 | 0.00 | 1.12 | 0.13 | 96 | 1010.0 |
| 20260903053037 | 14 | 0 | 0.0 | 0.0 | 0.00 | 1.12 | 0.13 | 95 | 1010.2 |
| 20260903051538 | 14 | 0 | 0.0 | 3.2 | 0.00 | 1.12 | 0.13 | 95 | 1010.4 |
| 20260903050051 | 14 | 153 | 0.0 | 4.8 | 0.00 | 1.12 | 0.13 | 95 | 1010.8 |
| 20260903044534 | 14 | 105 | 1.6 | 6.4 | 0.00 | 1.12 | 0.13 | 95 | 1011.0 |
| 20260903043038 | 15 | 164 | 3.2 | 6.4 | 0.08 | 1.12 | 0.13 | 95 | 1011.2 |
| 20260903041535 | 15 | 221 | 1.6 | 9.7 | 0.08 | 1.12 | 0.10 | 94 | 1011.4 |
| 20260903040049 | 15 | 164 | 1.6 | 8.0 | 0.08 | 1.12 | 0.10 | 94 | 1011.6 |
| 20260903034535 | 15 | 169 | 3.2 | 8.0 | 0.08 | 1.12 | 0.10 | 94 | 1011.9 |
| 20260903033035 | 15 | 164 | 1.6 | 8.0 | 0.05 | 1.04 | 0.05 | 93 | 1012.0 |
| 20260903031538 | 15 | 219 | 6.4 | 14.5 | 0.03 | 1.02 | 0.03 | 93 | 1012.4 |
| 20260903030036 | 15 | 212 | 8.0 | 19.3 | 0.03 | 1.02 | 0.03 | 92 | 1012.7 |
| 20260903024536 | 16 | 224 | 8.0 | 20.9 | 0.00 | 1.02 | 0.00 | 91 | 1012.8 |
| 20260903023042 | 16 | 223 | 6.4 | 17.7 | 0.00 | 0.99 | 0.00 | 92 | 1012.7 |
| 20260903021536 | 16 | 228 | 6.4 | 12.9 | 0.00 | 0.99 | 0.00 | 93 | 1012.8 |
| 20260903020037 | 16 | 249 | 6.4 | 17.7 | 0.00 | 0.99 | 0.00 | 93 | 1012.9 |
| 20260903014535 | 16 | 226 | 4.8 | 11.3 | 0.00 | 0.99 | 0.00 | 93 | 1013.2 |
| 20260903013038 | 16 | 246 | 4.8 | 12.9 | 0.00 | 0.99 | 0.00 | 93 | 1013.2 |
| 20260903011533 | 16 | 235 | 6.4 | 12.9 | 0.00 | 0.99 | 0.00 | 93 | 1013.3 |
| 20260903010038 | 16 | 244 | 6.4 | 12.9 | 0.00 | 0.99 | 0.00 | 94 | 1013.4 |
| 20260903004545 | 16 | 246 | 3.2 | 14.5 | 0.00 | 0.99 | 0.00 | 95 | 1013.9 |
| 20260903003048 | 16 | 264 | 4.8 | 12.9 | 0.00 | 0.99 | 0.00 | 95 | 1014.2 |
| 20260903001534 | 16 | 240 | 3.2 | 8.0 | 0.00 | 0.99 | 0.00 | 96 | 1014.2 |
| 20260903000045 | 15 | 0 | 0.0 | 0.0 | 0.00 | 0.99 | 0.00 | 95 | 1014.4 |
| 20260902234534 | 15 | 0 | 0.0 | 0.0 | 0.00 | 0.99 | 0.00 | 95 | 1014.4 |
| 20260902233038 | 15 | 0 | 0.0 | 0.0 | 0.00 | 0.99 | 0.00 | 95 | 1014.6 |
| 20260902231542 | 15 | 0 | 0.0 | 4.8 | 0.00 | 0.99 | 0.00 | 95 | 1014.9 |
| 20260902230033 | 15 | 221 | 3.2 | 8.0 | 0.00 | 0.99 | 0.00 | 95 | 1015.1 |
| 20260902224550 | 15 | 0 | 0.0 | 9.7 | 0.08 | 0.99 | 0.00 | 95 | 1015.3 |
| 20260902223033 | 15 | 229 | 3.2 | 9.7 | 0.23 | 0.99 | 0.00 | 95 | 1015.3 |
| 20260902221534 | 15 | 0 | 0.0 | 3.2 | 0.46 | 0.99 | 0.00 | 95 | 1015.3 |
| 20260902220037 | 15 | 0 | 0.0 | 9.7 | 0.48 | 0.99 | 0.00 | 95 | 1015.5 |
| 20260902214605 | 15 | 0 | 0.0 | 6.4 | 0.41 | 0.91 | 0.91 | 95 | 1015.5 |
| 20260902213033 | 15 | 309 | 3.2 | 8.0 | 0.20 | 0.71 | 0.71 | 95 | 1015.5 |
| 20260902211534 | 15 | 252 | 1.6 | 8.0 | 0.05 | 0.53 | 0.53 | 95 | 1015.5 |
| 20260902210042 | 15 | 240 | 1.6 | 8.0 | 0.00 | 0.48 | 0.48 | 95 | 1015.7 |
| 20260902204537 | 15 | 0 | 0.0 | 3.2 | 0.05 | 0.48 | 0.48 | 95 | 1015.7 |
| 20260902203039 | 15 | 257 | 0.0 | 6.4 | 0.08 | 0.48 | 0.48 | 95 | 1015.7 |
| 20260902201542 | 15 | 0 | 1.6 | 4.8 | 0.05 | 0.46 | 0.46 | 94 | 1015.8 |
| 20260902200036 | 15 | 275 | 0.0 | 4.8 | 0.05 | 0.46 | 0.46 | 94 | 1015.9 |
| 20260902194540 | 15 | 262 | 0.0 | 6.4 | 0.00 | 0.43 | 0.43 | 94 | 1015.9 |
| 20260902193038 | 15 | 0 | 0.0 | 0.0 | 0.00 | 0.41 | 0.41 | 94 | 1015.9 |
| 20260902191537 | 15 | 0 | 0.0 | 3.2 | 0.00 | 0.41 | 0.41 | 94 | 1015.9 |
| 20260902190037 | 15 | 0 | 0.0 | 3.2 | 0.00 | 0.41 | 0.41 | 93 | 1015.9 |
| 20260902184536 | 15 | 0 | 0.0 | 0.0 | 0.25 | 0.41 | 0.41 | 93 | 1015.9 |
| 20260902183040 | 15 | 296 | 1.6 | 6.4 | 0.25 | 0.41 | 0.41 | 93 | 1015.9 |
| 20260902181539 | 16 | 285 | 3.2 | 11.3 | 0.25 | 0.41 | 0.41 | 92 | 1015.8 |
| 20260902180036 | 16 | 269 | 1.6 | 8.0 | 0.23 | 0.38 | 0.38 | 91 | 1015.8 |